Change the Weather History Date:

Friday, November 9, 2012

  Actual Average Record
Temperature  
Mean Temperature 53 °F -  
Max Temperature 68 °F 59 °F 77 °F (1975)
Min Temperature 38 °F 39 °F 10 °F (1991)
Degree Days  
Heating Degree Days 12    
Growing Degree Days 3 (Base 50)    
Moisture  
Dew Point 47 °F    
Average Humidity 73    
Maximum Humidity 94    
Minimum Humidity 55    
Precipitation  
Precipitation 0.00 in - - ()
Sea Level Pressure  
Sea Level Pressure 30.02 in    
Wind  
Wind Speed 9 mph (South)    
Max Wind Speed 17 mph    
Max Gust Speed -    
Visibility 10 miles    
Events      
Averages and records for this station are not official NWS values.
T = Trace of Precipitation, MM = Missing Value Source: NWS Daily Summary

Daily Weather History Graph

Daily Weather History Graph

Search for Another Location

Airport or City:

Trip Planner

Search our weather history database for the weather conditions in past years. The results will help you decide how hot, cold, wet, or windy it might be!

Date:

Astronomy

Nov. 09, 2012 Rise Set
Actual Time 6:35 AM CST 4:50 PM CST
Civil Twilight 6:07 AM CST 5:18 PM CST
Nautical Twilight 5:35 AM CST 5:50 PM CST
Astronomical Twilight 5:04 AM CST 6:21 PM CST
Moon 1:37 AM CST (11/9) 2:01 PM CST (11/9)
Length of Visible Light 11h 11m
Length of Day
10h 15m
Waning Crescent, 23% of the Moon is Illuminated
Nov 9
Waning Crescent
Nov 13
New
Nov 20
First Quarter
Nov 28
Full
Dec 6
Last Quarter

Hourly Weather History & Observations

Time (CST) Temp. Windchill Dew Point Humidity Pressure Visibility Wind Dir Wind Speed Gust Speed Precip Events Conditions
12:55 AM 42.4 °F 40.7 °F 37.9 °F 84% 30.10 in 10.0 mi SSE 3.5 mph - N/A   Clear
1:55 AM 39.0 °F 34.0 °F 37.4 °F 94% 30.09 in 10.0 mi SSE 6.9 mph - N/A   Clear
3:55 AM 38.7 °F 34.3 °F 36.9 °F 93% 30.08 in 10.0 mi SSE 5.8 mph - N/A   Clear
4:55 AM 40.5 °F 36.5 °F 37.6 °F 89% 30.09 in 10.0 mi SSE 5.8 mph - N/A   Clear
5:55 AM 41.5 °F 37.8 °F 39.0 °F 91% 30.09 in 10.0 mi SSE 5.8 mph - N/A   Mostly Cloudy
6:55 AM 43.5 °F 40.1 °F 40.1 °F 88% 30.09 in 10.0 mi SSE 5.8 mph - N/A   Scattered Clouds
7:55 AM 47.1 °F - 41.5 °F 81% 30.09 in 10.0 mi SSE 4.6 mph - N/A   Mostly Cloudy
8:55 AM 52.2 °F - 43.2 °F 71% 30.08 in 10.0 mi South 6.9 mph - N/A   Overcast
9:55 AM 57.4 °F - 44.4 °F 62% 30.06 in 10.0 mi South 11.5 mph - N/A   Mostly Cloudy
10:55 AM 62.6 °F - 46.8 °F 56% 30.05 in 10.0 mi South 12.7 mph - N/A   Clear
11:55 AM 66.0 °F - 49.3 °F 55% 30.01 in 10.0 mi South 15.0 mph - N/A   Clear
12:55 PM 68.5 °F - 51.6 °F 55% 29.98 in 10.0 mi SSW 17.3 mph - N/A   Clear
1:55 PM 66.9 °F - 51.4 °F 57% 29.97 in 10.0 mi South 15.0 mph - N/A   Mostly Cloudy
2:55 PM 68.0 °F - 52.2 °F 57% 29.96 in 10.0 mi South 13.8 mph - N/A   Scattered Clouds
3:55 PM 68.2 °F - 52.7 °F 58% 29.94 in 10.0 mi South 17.3 mph - N/A   Clear
4:55 PM 66.0 °F - 53.8 °F 65% 29.94 in 10.0 mi South 12.7 mph - N/A   Clear
5:55 PM 64.8 °F - 54.3 °F 69% 29.95 in 10.0 mi South 12.7 mph - N/A   Clear
6:55 PM 63.3 °F - 54.9 °F 74% 29.96 in 10.0 mi South 12.7 mph - N/A   Clear
7:55 PM 62.2 °F - 55.2 °F 78% 29.97 in 10.0 mi South 12.7 mph - N/A   Clear
8:55 PM 60.8 °F - 54.9 °F 81% 29.98 in 10.0 mi South 10.4 mph - N/A   Clear
9:55 PM 60.4 °F - 53.6 °F 78% 29.99 in 10.0 mi SSW 12.7 mph - N/A   Clear
10:55 PM 60.3 °F - 51.6 °F 73% 29.99 in 10.0 mi South 12.7 mph - N/A   Scattered Clouds
11:55 PM 59.4 °F - 49.6 °F 70% 30.01 in 10.0 mi SSW 9.2 mph - N/A   Scattered Clouds